Retour au catalogue

JCSAT 12

ActifCommunicationsGEO
NORAD 35755·PAYLOAD·🇯🇵 Japan

Lancé Aug 21, 2009 depuis Guiana Space Centre

Loading…

TLE

FraisSource: Space-Track

Époque: Sep 14, 2026, 21:16 UTC

1 35755U 09044A   26257.88638059 -.00000335  00000-0  00000-0 0  9993
2 35755   0.0464 276.0606 0001689 302.6037 226.3644  1.00272740 62506

Suivez JCSAT 12 en temps réel avec AllMySat

Download on the App Store